Location: Unspecified
(0.0000°N, 0.0000°E)
Time: 10:51:28
(UTC+00:00)

deb Explorer IX - All Passes

Search period start: 03 September 2015 00:00
Search period end: 13 September 2015 00:00
Orbit: 540 x 1153 km, 38.8° (Epoch: 02 September)

Date Brightness Start Highest point End Pass type
(mag) Time Alt. Az. Time Alt. Az. Time Alt. Az.
03 Sep - 05:11:56 10° N 05:15:55 19° NE 05:20:34 10° E visible
03 Sep - 06:57:18 10° NW 07:03:36 77° SW 07:10:55 10° SE daylight
03 Sep - 08:47:43 10° WSW 08:52:09 17° SW 08:56:31 10° S daylight
03 Sep - 17:59:24 10° SSW 18:04:40 44° SE 18:09:11 10° ENE daylight
03 Sep - 19:48:22 10° W 19:51:58 20° NW 19:55:07 10° N visible
04 Sep - 04:56:28 10° N 05:00:38 21° NE 05:05:30 10° E visible
04 Sep - 06:42:08 10° WNW 06:48:16 68° SW 06:55:25 10° SE daylight
04 Sep - 08:33:08 10° WSW 08:36:55 14° SSW 08:40:31 10° S daylight
04 Sep - 17:43:53 10° SW 17:49:28 53° SE 17:54:10 10° ENE daylight
04 Sep - 19:33:24 10° W 19:36:44 17° NW 19:39:39 10° N visible
05 Sep - 04:41:01 10° N 04:45:20 24° NE 04:50:24 10° E visible
05 Sep - 06:27:01 10° WNW 06:32:57 59° SW 06:39:53 10° SE daylight
05 Sep - 08:18:48 10° SW 08:21:41 12° SSW 08:24:17 10° S daylight
05 Sep - 15:44:29 10° SSE 15:45:49 11° SSE 15:47:25 10° SE daylight
05 Sep - 17:28:24 10° SW 17:34:15 64° SE 17:39:07 10° ENE daylight
05 Sep - 19:18:30 10° WNW 19:21:32 15° NW 19:24:08 10° N visible
06 Sep - 04:25:38 10° NNW 04:30:03 26° NE 04:35:15 10° E visible
06 Sep - 06:11:56 10° WNW 06:17:38 51° SW 06:24:20 10° SE daylight
06 Sep - 08:05:12 10° SW 08:06:29 10° SSW 08:07:20 10° SSW daylight
06 Sep - 15:27:52 10° S 15:30:39 13° SSE 15:33:31 10° ESE daylight
06 Sep - 17:12:55 10° SW 17:19:00 75° SE 17:24:02 10° NE daylight
06 Sep - 19:03:42 10° WNW 19:06:18 13° NW 19:08:31 10° NNW visible
07 Sep - 04:10:16 10° NNW 04:14:46 30° NE 04:20:04 10° ESE visible
07 Sep - 05:56:53 10° WNW 06:02:21 44° SW 06:08:45 10° SSE daylight
07 Sep - 15:11:44 10° S 15:15:27 16° SSE 15:19:07 10° ESE daylight
07 Sep - 16:57:28 10° SW 17:03:44 87° SE 17:08:55 10° NE daylight
07 Sep - 18:49:02 10° WNW 18:51:05 12° NW 18:52:46 10° NNW visible
08 Sep - 03:54:56 10° NNW 03:59:28 33° NE 04:04:51 10° ESE visible
08 Sep - 05:41:53 10° WNW 05:47:05 37° SW 05:53:08 10° SSE daylight
08 Sep - 14:55:47 10° S 15:00:15 19° SSE 15:04:31 10° ESE daylight
08 Sep - 16:42:02 10° SW 16:48:27 81° NW 16:53:45 10° NE daylight
08 Sep - 18:34:46 10° NW 18:35:52 10° NW 18:36:35 10° NNW visible
09 Sep - 03:39:39 10° NNW 03:44:12 38° NE 03:49:37 10° ESE visible
09 Sep - 05:26:55 10° W 05:31:51 32° SW 05:37:29 10° SSE visible
09 Sep - 14:39:56 10° SSW 14:45:01 22° SE 14:49:46 10° E daylight
09 Sep - 16:26:37 10° SW 16:33:09 71° NW 16:38:34 10° NE daylight
10 Sep - 03:24:22 10° NNW 03:28:55 43° NE 03:34:21 10° ESE visible
10 Sep - 05:12:02 10° W 05:16:37 27° SW 05:21:48 10° SSE visible
10 Sep - 14:24:09 10° SSW 14:29:46 25° SE 14:34:56 10° E daylight
10 Sep - 16:11:13 10° WSW 16:17:49 62° NW 16:23:20 10° NE daylight
11 Sep - 03:09:08 10° NNW 03:13:40 50° NE 03:19:03 10° ESE visible
11 Sep - 04:57:12 10° W 05:01:25 23° SW 05:06:04 10° SSE visible
11 Sep - 14:08:25 10° SSW 14:14:29 29° SE 14:20:01 10° E daylight
11 Sep - 15:55:51 10° WSW 16:02:29 54° NW 16:08:05 10° NE daylight
12 Sep - 02:53:55 10° NW 02:58:25 59° NE 03:03:44 10° ESE visible
12 Sep - 04:42:28 10° W 04:46:13 19° SW 04:50:16 10° S visible
12 Sep - 13:52:45 10° SSW 13:59:12 34° SE 14:05:02 10° E daylight
12 Sep - 15:40:30 10° WSW 15:47:09 48° NW 15:52:48 10° NNE daylight
